Wind_Speed
14 14 14 14 14 14 13 13 13 13 13 13 14 14 13 13 13 13 13 13 13 13 13 12 11 11 11 10 9 9 9 9 9 9 8 9 8 8 8 8 8 9 9
14 15 15 15 15 14 14 14 14 14 13 14 14 14 14 14 14 14 14 14 14 14 14 14 14 14 13 12 11 11 11 10 10 10 10 9 9 10 10 10 10 10 10
15 16 16 16 16 16 15 15 15 14 14 13 13 14 14 14 14 15 14 15 15 15 15 15 15 16 16 15 15 14 13 12 12 11 11 12 12 12 11 11 12 12 12
16 17 17 16 16 16 16 15 15 14 14 13 14 14 14 14 15 15 16 16 16 17 17 17 16 16 17 17 16 15 15 15 14 14 13 13 14 14 14 13 13 13 13
18 17 18 17 16 15 15 15 15 14 14 14 14 14 14 15 15 16 16 17 17 18 18 19 18 17 17 18 18 18 17 17 17 16 16 16 16 16 16 15 15 15 15
19 19 19 18 17 17 16 16 16 15 15 15 15 15 15 16 16 16 17 18 18 19 19 20 21 20 19 19 19 20 19 19 19 19 18 18 18 18 17 17 17 17 17
21 21 20 20 19 19 18 17 17 17 17 17 16 17 17 17 17 17 18 19 20 20 20 21 21 22 22 21 21 22 21 21 21 21 21 20 20 19 19 20 20 20 19
21 21 21 21 21 21 20 20 19 19 19 19 19 19 19 19 19 19 20 20 21 21 22 22 22 23 23 24 24 24 24 23 23 23 23 22 22 21 21 21 22 22 21
21 21 21 21 21 21 21 21 20 20 21 21 21 21 21 21 21 21 20 21 21 22 23 23 23 23 24 25 25 25 25 25 25 24 24 24 24 24 23 23 23 23 23
21 21 22 21 22 22 22 22 21 22 22 22 22 22 22 22 22 22 22 22 23 23 23 24 25 25 25 25 25 26 26 25 25 25 26 26 25 25 25 25 25 25 25
23 23 23 23 23 23 23 23 23 24 24 24 24 24 24 24 24 24 23 24 24 24 24 24 25 26 26 26 26 27 27 26 26 26 26 26 26 26 26 26 26 26 25
24 24 24 25 25 25 26 25 25 26 26 26 26 26 26 25 26 26 25 26 27 27 26 26 27 27 28 28 28 28 28 28 28 27 27 27 27 27 28 27 27 28 27
26 26 26 26 27 27 27 27 27 28 28 27 28 28 28 28 28 28 27 27 27 28 28 28 28 29 30 30 30 30 29 29 29 28 28 29 29 29 29 29 29 30 30
27 28 28 28 28 29 29 29 29 29 29 29 29 30 30 30 30 30 30 29 29 29 30 30 30 31 31 32 32 32 32 31 31 30 30 30 31 30 31 31 31 30 31
29 30 30 30 30 30 30 30 30 30 31 31 31 31 32 32 31 31 31 31 31 31 31 31 32 33 32 32 32 33 33 33 33 32 31 31 32 32 32 32 32 32 31
30 31 32 32 32 32 32 32 32 32 32 33 33 33 33 33 33 33 33 33 33 33 33 33 33 33 32 32 32 33 33 34 34 34 34 33 32 32 32 33 34 34 33
31 32 32 33 33 34 34 34 34 34 34 34 34 34 34 34 34 34 34 35 35 35 35 35 34 34 33 33 33 33 34 34 34 35 35 34 33 33 34 34 35 35 35
33 33 34 35 35 35 36 36 36 36 36 35 35 36 36 36 36 35 35 36 36 36 36 36 36 35 35 34 34 34 34 35 35 35 35 35 35 35 35 35 36 36 36
34 35 35 36 37 37 37 37 37 37 37 37 37 37 37 37 37 37 37 37 37 37 37 37 37 37 37 37 36 35 35 35 35 35 36 36 36 35 36 36 37 37 38
36 36 37 37 37 38 39 39 39 38 38 38 38 39 39 39 38 38 38 38 38 38 38 38 38 37 37 37 37 36 36 36 36 35 35 36 36 36 36 36 37 38 38
37 37 38 38 38 39 40 40 40 40 40 40 40 40 41 40 40 40 39 39 39 39 39 39 38 38 37 37 36 36 36 36 36 36 36 36 36 36 37 37 38 39 39
38 39 39 39 39 40 41 41 41 42 41 41 41 41 41 42 41 40 40 40 40 40 40 39 39 38 38 38 37 37 37 37 37 37 37 37 37 37 38 39 39 39 40
39 39 40 40 40 41 42 42 42 42 42 42 42 43 43 42 42 42 42 42 41 41 41 40 40 39 39 38 38 38 37 36 37 36 36 37 37 38 39 39 40 41 41
40 40 40 40 40 41 41 42 42 41 42 42 42 43 43 43 42 42 42 43 43 42 41 41 40 40 40 40 39 39 38 38 37 37 37 37 37 38 39 40 41 42 42
40 40 40 40 40 40 41 41 41 42 42 42 42 42 42 42 42 42 42 43 43 43 42 41 42 41 41 41 41 40 40 39 39 39 39 39 39 40 40 41 42 42 43
40 40 40 40 40 40 41 41 42 42 42 42 43 42 42 42 42 42 43 44 44 44 43 42 42 42 42 42 42 42 41 41 40 40 41 41 41 41 42 42 43 43 44
Wind_Direction
248 250 251 251 251 250 250 251 252 253 255 255 255 255 254 255 255 256 257 256 255 254 254 253 255 257 257 260 262 260 258 260 259 259 260 258 261 265 264 261 263 263 264
250 252 253 253 253 253 253 254 253 254 256 257 257 255 254 255 256 257 258 257 257 256 256 255 255 258 258 260 264 266 262 259 260 260 261 262 266 268 269 266 264 263 265
251 252 253 254 254 254 255 256 255 256 256 257 256 254 254 254 256 258 259 259 258 258 258 259 258 259 260 261 264 265 263 262 262 262 265 266 269 270 269 267 266 265 266
252 252 253 254 256 255 255 256 256 256 257 258 256 254 254 254 257 259 260 260 259 259 258 259 261 261 261 261 263 263 263 263 264 266 269 272 272 271 270 267 267 267 266
253 253 254 255 256 256 255 254 254 255 257 259 257 255 255 257 259 261 263 263 262 261 259 258 260 261 262 262 262 262 262 264 266 266 269 272 275 274 271 267 265 267 267
253 254 254 255 255 255 256 255 255 257 259 260 259 259 258 259 262 263 265 267 265 263 261 259 259 260 262 262 262 262 262 263 266 266 269 272 273 272 271 269 266 267 267
253 253 253 253 254 256 257 258 259 260 260 260 260 261 261 263 264 265 267 267 266 264 262 260 262 262 262 262 261 261 263 264 265 266 269 271 271 270 269 268 267 265 266
253 254 254 255 255 257 258 258 259 260 260 259 260 262 264 265 266 268 269 268 266 265 262 261 262 263 263 263 262 261 262 264 265 268 269 270 270 268 267 267 266 266 266
254 254 254 255 256 257 258 258 259 260 260 259 260 262 265 267 267 269 269 269 267 265 263 262 263 265 266 264 263 261 262 263 264 267 270 270 269 268 267 267 267 267 267
255 256 256 256 256 256 257 258 259 260 260 261 262 264 265 267 268 269 270 269 267 267 265 264 264 264 266 265 264 263 263 263 263 267 269 269 269 270 268 268 268 267 269
256 258 258 258 258 258 259 260 262 263 263 262 263 265 266 267 268 270 271 270 268 267 267 267 266 264 265 265 264 264 263 263 264 267 268 268 269 270 269 269 268 267 268
256 257 258 259 260 260 260 261 263 264 264 264 264 265 267 268 269 270 270 271 270 268 267 269 267 266 265 265 264 264 263 264 265 266 267 268 268 269 268 268 268 267 267
258 258 259 260 260 261 262 262 264 265 265 266 265 265 266 267 268 268 270 271 271 269 269 270 268 267 266 265 263 263 263 264 265 265 267 268 268 269 268 268 268 268 267
260 260 260 261 261 262 263 263 265 266 266 266 266 266 266 267 267 267 268 270 270 271 271 271 270 268 267 267 264 263 263 263 264 265 267 268 268 268 268 268 267 268 269
260 261 262 262 262 263 263 264 265 266 267 266 266 266 267 267 267 267 268 268 269 270 272 272 270 270 270 269 266 265 264 263 263 265 267 268 267 267 267 268 267 268 270
262 263 264 264 264 264 265 265 265 266 266 266 267 267 267 267 267 267 268 268 269 269 270 271 271 271 270 270 269 268 267 265 266 266 267 268 267 266 267 267 268 268 269
264 265 265 265 265 265 265 265 266 266 267 267 267 268 267 268 268 268 268 269 269 268 269 270 270 270 269 269 270 270 269 269 267 267 267 267 267 267 268 268 268 270 270
266 267 267 266 266 266 267 267 267 266 267 267 267 267 267 267 268 268 269 268 268 268 268 269 270 270 270 270 271 271 270 269 270 269 268 267 267 267 268 269 269 270 271
268 269 269 268 267 267 267 267 268 268 267 267 266 266 267 267 267 267 268 268 268 268 269 269 271 271 270 270 271 271 272 272 271 271 268 268 267 266 267 268 270 271 272
269 270 270 269 268 267 267 267 268 268 268 267 267 267 267 267 267 267 267 267 267 267 268 269 270 271 271 272 272 271 272 272 274 273 270 269 268 267 268 268 270 271 272
270 270 271 270 269 269 268 267 267 267 267 268 268 268 267 267 266 266 266 266 266 267 268 269 270 270 270 271 272 271 270 272 272 273 272 271 270 269 269 270 271 273 273
271 271 271 271 270 269 268 267 267 267 267 268 269 269 268 267 266 266 265 265 265 266 267 268 270 270 270 270 271 271 270 271 272 273 273 272 271 271 272 272 272 274 275
271 272 272 272 271 270 269 268 268 268 268 269 268 268 267 267 267 266 265 264 264 265 266 268 269 269 269 269 270 272 272 271 271 273 274 273 273 272 273 273 274 275 276
271 272 272 273 272 270 269 268 267 267 268 268 268 268 268 267 266 265 265 264 263 264 265 266 268 269 268 269 270 271 273 273 271 272 273 274 274 274 275 276 276 277 277
271 271 273 273 272 271 270 269 268 267 267 268 268 268 267 267 266 264 263 263 263 263 264 265 267 268 268 269 270 271 272 274 274 273 272 273 274 275 276 276 276 277 278
270 271 272 272 271 271 271 270 269 268 267 268 267 266 266 265 265 264 262 261 262 263 263 263 266 267 268 269 270 271 273 274 275 274 273 273 274 275 276 277 276 277 278
Height
5838 5838 5839 5840 5841 5841 5842 5842 5843 5843 5844 5844 5845 5845 5845 5846 5846 5847 5847 5848 5848 5849 5850 5851 5851 5851 5852 5852 5853 5853 5853 5854 5855 5855 5856 5856 5857 5857 5858 5858 5858 5859 5859
5835 5836 5837 5837 5838 5839 5839 5840 5840 5841 5841 5842 5842 5842 5843 5844 5844 5845 5845 5846 5846 5847 5847 5848 5849 5850 5850 5851 5851 5851 5852 5852 5853 5854 5854 5855 5855 5856 5856 5856 5857 5857 5857
5832 5833 5834 5835 5835 5836 5837 5837 5838 5838 5838 5839 5839 5840 5840 5841 5842 5842 5843 5843 5843 5844 5845 5845 5846 5847 5848 5848 5849 5849 5850 5850 5851 5852 5852 5853 5853 5853 5854 5854 5854 5855 5855
5829 5830 5831 5832 5833 5833 5834 5835 5835 5835 5836 5836 5836 5837 5838 5838 5839 5839 5840 5840 5840 5841 5842 5842 5843 5843 5844 5845 5846 5847 5847 5848 5849 5849 5850 5850 5850 5851 5851 5851 5852 5852 5852
5826 5827 5828 5829 5830 5830 5831 5832 5832 5832 5833 5833 5834 5834 5835 5835 5836 5836 5836 5837 5837 5837 5838 5839 5839 5840 5841 5842 5843 5844 5844 5845 5845 5846 5847 5847 5847 5847 5848 5848 5849 5849 5849
5823 5824 5824 5825 5826 5827 5828 5828 5829 5829 5830 5830 5831 5831 5832 5832 5832 5833 5833 5833 5833 5833 5834 5835 5836 5836 5837 5838 5839 5840 5841 5841 5842 5842 5843 5843 5844 5844 5844 5845 5845 5845 5846
5819 5820 5821 5821 5822 5823 5824 5824 5825 5826 5827 5827 5828 5828 5828 5829 5829 5829 5829 5829 5829 5829 5830 5830 5831 5832 5833 5834 5835 5836 5837 5837 5838 5838 5839 5839 5839 5840 5840 5841 5841 5841 5842
5815 5816 5817 5817 5818 5819 5820 5821 5821 5822 5823 5823 5824 5824 5825 5825 5825 5825 5825 5825 5825 5825 5826 5826 5827 5828 5829 5829 5830 5831 5832 5833 5833 5834 5834 5834 5835 5835 5836 5836 5836 5837 5837
5810 5811 5813 5813 5814 5815 5816 5816 5817 5818 5818 5819 5820 5820 5820 5821 5821 5821 5821 5821 5821 5821 5821 5822 5823 5824 5824 5824 5825 5826 5827 5828 5828 5829 5829 5829 5830 5830 5830 5831 5831 5832 5832
5806 5807 5808 5809 5810 5810 5811 5812 5813 5813 5814 5814 5815 5816 5816 5816 5816 5816 5816 5816 5816 5816 5817 5817 5818 5819 5819 5820 5820 5821 5821 5822 5823 5824 5824 5824 5824 5825 5825 5825 5826 5826 5827
5801 5802 5803 5804 5805 5806 5806 5807 5808 5808 5809 5809 5810 5811 5811 5811 5811 5811 5811 5811 5811 5811 5812 5812 5813 5814 5814 5814 5815 5815 5816 5817 5818 5818 5818 5819 5819 5819 5819 5820 5820 5821 5821
5796 5797 5797 5798 5799 5800 5801 5802 5802 5803 5803 5804 5805 5805 5806 5806 5806 5806 5806 5806 5806 5806 5807 5807 5808 5808 5809 5809 5809 5810 5810 5811 5812 5812 5812 5813 5813 5813 5813 5814 5814 5815 5815
5790 5791 5792 5793 5794 5794 5795 5796 5796 5797 5798 5798 5799 5799 5800 5800 5801 5801 5801 5801 5801 5801 5801 5801 5801 5802 5802 5803 5803 5803 5804 5805 5805 5806 5806 5806 5807 5807 5807 5807 5808 5808 5808
5784 5785 5786 5786 5787 5788 5789 5789 5790 5791 5791 5792 5792 5793 5794 5794 5795 5795 5795 5795 5795 5795 5795 5795 5795 5795 5795 5796 5796 5797 5798 5798 5799 5799 5800 5800 5800 5800 5800 5800 5801 5801 5801
5778 5779 5779 5780 5781 5781 5782 5783 5783 5784 5785 5785 5786 5786 5787 5787 5788 5788 5788 5788 5789 5788 5788 5788 5788 5788 5788 5788 5789 5789 5790 5791 5792 5792 5793 5792 5792 5793 5793 5793 5793 5793 5794
5771 5771 5772 5773 5773 5774 5775 5776 5776 5777 5777 5778 5778 5779 5779 5780 5780 5781 5781 5781 5781 5781 5781 5781 5781 5781 5781 5781 5781 5781 5782 5783 5784 5785 5785 5785 5784 5784 5785 5785 5786 5786 5786
5763 5764 5764 5765 5766 5767 5767 5768 5768 5769 5769 5770 5771 5771 5772 5772 5773 5773 5773 5774 5774 5774 5774 5774 5774 5773 5773 5773 5773 5773 5774 5775 5775 5776 5776 5777 5777 5777 5777 5777 5778 5778 5778
5755 5756 5756 5757 5758 5758 5759 5759 5760 5761 5761 5762 5762 5763 5764 5764 5765 5765 5765 5766 5766 5766 5766 5766 5766 5766 5766 5765 5765 5765 5765 5766 5767 5767 5768 5768 5769 5769 5769 5770 5770 5770 5770
5747 5748 5748 5748 5749 5749 5750 5751 5751 5752 5752 5753 5754 5754 5755 5755 5756 5756 5757 5757 5757 5757 5758 5758 5758 5757 5757 5757 5757 5757 5757 5757 5758 5758 5759 5759 5760 5760 5761 5761 5761 5761 5761
5739 5739 5739 5739 5739 5740 5741 5741 5742 5743 5743 5744 5744 5745 5745 5746 5747 5747 5748 5748 5749 5749 5749 5749 5749 5749 5748 5748 5748 5748 5748 5748 5749 5750 5750 5751 5751 5752 5752 5752 5753 5753 5752
5730 5730 5730 5730 5730 5730 5731 5732 5732 5733 5734 5734 5735 5735 5736 5736 5737 5738 5739 5739 5740 5740 5740 5740 5740 5740 5740 5739 5740 5740 5740 5740 5741 5741 5742 5742 5742 5743 5743 5743 5743 5743 5743
5720 5720 5720 5720 5720 5720 5721 5721 5722 5723 5723 5724 5725 5725 5726 5726 5727 5728 5729 5729 5730 5731 5731 5731 5731 5731 5731 5731 5731 5731 5732 5733 5732 5733 5733 5733 5734 5734 5734 5734 5734 5734 5734
5710 5710 5710 5710 5709 5710 5710 5711 5711 5712 5713 5713 5714 5714 5715 5715 5717 5717 5718 5719 5720 5721 5721 5721 5721 5722 5722 5722 5722 5722 5723 5724 5724 5724 5724 5724 5724 5725 5725 5725 5724 5724 5723
5700 5700 5699 5699 5699 5699 5699 5700 5701 5702 5702 5703 5703 5703 5704 5704 5705 5706 5707 5708 5709 5710 5711 5711 5711 5712 5712 5712 5713 5713 5714 5714 5715 5716 5716 5715 5715 5715 5715 5715 5714 5714 5713
5690 5689 5689 5689 5689 5689 5689 5689 5690 5691 5691 5692 5692 5692 5693 5693 5694 5695 5696 5697 5698 5699 5700 5701 5701 5702 5702 5703 5703 5704 5704 5704 5705 5706 5707 5707 5706 5706 5705 5704 5704 5703 5703
5679 5679 5679 5678 5678 5678 5678 5678 5679 5679 5680 5680 5680 5681 5681 5682 5683 5683 5684 5686 5687 5688 5689 5690 5691 5691 5692 5693 5693 5694 5694 5695 5695 5696 5696 5697 5697 5696 5695 5694 5693 5692 5691